Home   Weather   Oslo   Past weeks

Flag for Norway Past Weather in Oslo, Norway — Yesterday and Last 2 Weeks

Now
48 °F

Cool.


Feels Like: 46 °F
Forecast: 25 / 32 °F
Wind: 5 mph from Northwest

Location: Oslo-Blindern

Current Time: Dec 5, 2016 at 11:46:24 am

Latest Report: Dec 5, 2016 at 11:00 am


Visibility: 31 mi

Pressure: 29.95 "Hg

Humidity: 51%

Dew Point: 30 °F

Location of OsloLocation

Past Weather in Oslo — Graph

°F

Oslo Temperature Yesterday

Maximum temperature yesterday: 32 °F (at 9:00 pm)
Minimum temperature yesterday: 24 °F (at 7:00 am)
Average temperature yesterday: 28 °F

High & Low Weather Summary for the Past Weeks

 TemperatureHumidityPressure
High48 °F (Nov 26, 12:00 pm)100% (Nov 22, 3:00 pm)30.46 "Hg (Nov 22, 3:00 pm)
Low24 °F (Dec 4, 7:00 am)38% (Nov 26, 2:00 pm)29.32 "Hg (Nov 21, 2:00 am)
Average35 °F78%29.94 "Hg
* Reported Nov 20 10:00 am — Dec 5 10:00 am, Oslo, Weather by CustomWeather, © 2016

Note: Actual official high and low records may vary slightly from our data, if they occured in-between our weather recording intervals... More about our weather records

Advertising

Oslo Weather History for the Previous 24 Hours

Scroll right to see more
 ConditionsComfort  
Time TempWeatherWind HumidityBarometerVisibility
10:00 am
Mon, Dec 5
48 °FOvercast.5 mph51%29.94 "Hg47 mi
9:00 am47 °FCool.5 mph52%29.93 "HgN/A
8:00 am43 °FQuite cool.1 mph59%29.93 "Hg31 mi
7:00 am45 °FCool.3 mph56%29.93 "HgN/A
6:00 am42 °FQuite cool.3 mph62%29.93 "HgN/A
5:00 am38 °FChilly.2 mph75%29.94 "HgN/A
4:00 am38 °FChilly.5 mph77%29.95 "HgN/A
3:00 am36 °FChilly.2 mph81%29.96 "Hg31 mi
2:00 am34 °FChilly.1 mph85%29.97 "HgN/A
1:00 am33 °FChilly.1 mph89%29.99 "Hg19 mi
12:00 am32 °FChilly.1 mph90%30.01 "Hg12 mi
11:00 pm
Sun, Dec 4
31 °FChilly.2 mph91%30.03 "Hg8 mi
10:00 pm31 °FOvercast.1 mph90%30.04 "Hg16 mi
9:00 pm32 °FChilly.2 mph90%30.05 "Hg19 mi
8:00 pm31 °FChilly.2 mph90%30.07 "Hg11 mi
7:00 pm31 °FChilly.No wind88%30.08 "HgN/A
6:00 pm31 °FChilly.1 mph88%30.09 "HgN/A
5:00 pm30 °FChilly.No wind88%30.09 "HgN/A
4:00 pm29 °FOvercast.1 mph90%30.09 "Hg19 mi
3:00 pm29 °FChilly.1 mph92%30.11 "Hg11 mi
2:00 pm30 °FChilly.1 mph88%30.12 "Hg14 mi
1:00 pm31 °FOvercast.1 mph86%30.13 "Hg25 mi
12:00 pm30 °FChilly.1 mph84%30.14 "Hg19 mi
11:00 am29 °FChilly.No wind90%30.15 "Hg17 mi
Weather by CustomWeather, © 2016

See weather overviewHow to use our weather pages